« Back
NWS Peachtree City, Ga » Text Product » GA Regional Weather Roundup


Printer-friendly Version
Current Version              Previous Versions:   1  2  3  4  5  6  7  8  9  

Regional Weather Roundup

740
ASUS42 KFFC 220003
RWRGA
WEATHER ROUNDUP FOR GEORGIA
NATIONAL WEATHER SERVICE PEACHTREE CITY GA
800 PM EDT THU AUG 21 2014

NOTE: "FAIR" INDICATES FEW OR NO CLOUDS BELOW 12,000 FEET WITH NO
SIGNIFICANT WEATHER AND/OR OBSTRUCTIONS TO VISIBILITY.

* = USE WITH CAUTION. THE STATIONS MARKED WITH AN ASTERISK MAY NOT
REPORT WEATHER SUCH AS PRECIPITATION, FOG, OR THUNDER AND ARE NOT
QUALITY CONTROLLED BY NWS.

THE REMARK "TC" DENOTES TEMPERATURE READING IN DEGREES CELSIUS.

GAZ001>058-220100-
NORTH GEORGIA

CITY           SKY/WX    TMP DP  RH WIND       PRES   REMARKS
ATLANTA        MOCLDY    80  70  71 W7        30.11S
6HR MIN TEMP:  80; 6HR MAX TEMP:  92;

ATHENS         MOCLDY    82  70  66 CALM      30.09R
6HR MIN TEMP:  82; 6HR MAX TEMP:  98;

CHAMBLEE       PTCLDY    84  71  65 W6        30.12R
6HR MIN TEMP:  84; 6HR MAX TEMP:  92;

PEACHTREE CITY MOCLDY    76  74  93 CALM      30.12R FOG
6HR MIN TEMP:  74; 6HR MAX TEMP:  92; 6HR PCP:  0.14;

ROME           PTCLDY    83  74  74 W5        30.08S
6HR MIN TEMP:  76; 6HR MAX TEMP:  92; 6HR PCP:  0.42;

WEST ATLANTA   MOCLDY    83  71  67 CALM      30.11R
6HR MIN TEMP:  82; 6HR MAX TEMP:  92;

GAINESVILLE    PTCLDY    87  69  54 W5        30.14R HX  91
6HR MIN TEMP:  87; 6HR MAX TEMP:  93;

CARTERSVILLE   PTCLDY    79  75  87 CALM      30.11R
6HR MIN TEMP:  79; 6HR MAX TEMP:  93;



CITY           SKY/WX    TMP DP  RH WIND       PRES   REMARKS
DALTON*        CLEAR     84  75  74 CALM      30.09S HX  92
LAWRENCEVILLE* MOCLDY    90  66  45 CALM      30.11R HX  92
MARIETTA       MOCLDY    83  74  74 S3        30.12R
KENNESAW*      PTCLDY    86  64  48 N3        30.13R
$$

GAZ059>098-102>109-220100-
CENTRAL GEORGIA

CITY           SKY/WX    TMP DP  RH WIND       PRES   REMARKS
AUGUSTA-BUSH   PTCLDY    88  69  53 W3        30.03R HX  92
6HR MIN TEMP:  88; 6HR MAX TEMP:  98;

AUGUSTA-DANIEL CLEAR     93  65  39 CALM      30.06R HX  95
6HR MIN TEMP:  93; 6HR MAX TEMP:  99;

COLUMBUS       CLOUDY    83  70  64 E3        30.08F
6HR MIN TEMP:  82; 6HR MAX TEMP:  96;

MACON          PTCLDY    85  71  63 W6        30.06S HX  90
6HR MIN TEMP:  85; 6HR MAX TEMP:  98;

ROBINS AFB     PTCLDY    89  70  53 W6        30.06R HX  93


CITY           SKY/WX    TMP DP  RH WIND       PRES   REMARKS
LAGRANGE*      CLOUDY    86  75  70 N3        30.10F HX  95
SYLVANIA*      CLEAR     85  74  70 CALM      30.05R HX  93
MILLEDGEVILLE* PTCLDY    90  73  58 W5        30.06S HX  98
$$

GAZ099>101-110>166-220100-
SOUTH GEORGIA

CITY           SKY/WX    TMP DP  RH WIND       PRES   REMARKS
SAVANNAH       PTCLDY    89  73  59 W5        30.04R HX  97
6HR MIN TEMP:  89; 6HR MAX TEMP:  97;

VALDOSTA       CLOUDY    84  69  60 CALM      30.08R
6HR MIN TEMP:  83; 6HR MAX TEMP:  98;

ALMA           CLEAR     87  73  62 CALM      30.05R HX  94
6HR MIN TEMP:  87; 6HR MAX TEMP:  97;

ST SIMONS      CLEAR     86  76  71 SE6       30.04R HX  96
6HR MIN TEMP:  86; 6HR MAX TEMP:  98;

FT STEWART     CLEAR     88  73  61 CALM      30.03R HX  95
ALBANY         CLOUDY    76  72  87 CALM      30.09F
HUNTER AFB     CLEAR     89  74  62 W5        30.02R HX  98
MOODY AFB      CLOUDY    79  74  83 W3        30.07F
BRUNSWICK      CLEAR     86  73  66 CALM      30.05R HX  93


CITY           SKY/WX    TMP DP  RH WIND       PRES   REMARKS
BAINBRIDGE*    CLOUDY    84  73  70 W5        30.07S HX  91
MOULTRIE*      CLOUDY    81  73  78 CALM      30.09S
VIDALIA*         N/A     88  73  62 NE3       30.06R HX  96
WAYCROSS*      CLEAR     94  75  55 CALM      30.05R HX 105
DOUGLAS*       CLEAR     90  70  51 NW8       30.08R HX  95
$$



USA.gov is the U.S. government's official web portal to all federal, state and local government web resources and services.